{"data":{"norad_id":63445,"intl_designator":"2025-069N","name":"STARLINK-33659","alt_names":[],"object_type":"PAYLOAD","status":"ACTIVE","operator":null,"country":"US","launch_date":"2025-04-04","launch_site_code":"AFWTR","launch_vehicle":null,"mission":null,"orbit_class":"UNKNOWN","rcs_meters":null,"size_class":null,"mass_kg":null,"dimensions":null,"purposes":["comms"],"wikipedia_slug":null,"has_3d_model":false,"image_url":null,"decayed_at":null,"tle_current":{"epoch":"2026-05-25T03:40:38.989056Z","epoch_age_seconds":62128,"freshness":"FRESH","line1":"1 63445U 25069N   26145.15322904  .00029385  00000+0  68165-3 0  9993","line2":"2 63445  53.1576 145.0384 0000860  74.7434 285.3667 15.42180861 65092","mean_motion":15.42180861,"eccentricity":8.6e-5,"inclination_deg":53.1576,"raan_deg":145.0384,"arg_perigee_deg":74.7434,"mean_anomaly_deg":285.3667,"bstar":0.00068165,"rev_number":6509,"period_min":93.374262151474,"perigee_km":439.08783845937,"apogee_km":440.26050198065,"semimajor_km":6817.81117022,"source":"CELESTRAK","updated_at":"2026-05-25T13:38:20.000484Z"}}}